User: anonymous   Login
Location: St. Louis
(38.6270°N, 90.1994°W)
Time: 14:42:09
(UTC-06:00)
Language:

HuskySat-1 - Orbit

View from above orbital plane
View from above orbital plane
View from above satellite
View from above satellite

Ground track
Ground track

The orbit data is extracted from the following two-line orbital elements,

1 45117U 19071G   22019.53748169  .00019025  00000-0  48000-3 0  9995
2 45117  51.6399  64.9528 0009387 359.9971   0.1012 15.39830148110432
Epoch (UTC): 19 January 2022 12:53:58
Eccentricity: 0.0009387
inclination: 51.6399°
perigee height: 440 km
apogee height: 453 km
right ascension of ascending node: 64.9528°
argument of perigee: 359.9971°
revolutions per day: 15.39830148
mean anomaly at epoch: 0.1012°
orbit number at epoch: 11043

The dashed part of the orbit path shows where the satellite is in the earth's shadow,  

DLR